Location: Strawberry
(45.6646°N, 111.9596°W)
Time: 11:46:14
(UTC+00:00)

Transit 4A - Pass Details

Date: 11 October 2022
Orbit: 871 x 973 km, 66.8° (Epoch: 26 November)

Event Time Altitude Azimuth Distance (km) Brightness Sun altitude
Rises 02:50:57 0° 185° (S) 3,600 10.9 -21.7°
Reaches altitude 10° 02:53:40 10° 178° (S) 2,645 10.1 -22.2°
Enters shadow 02:56:19 24° 161° (SSE) 1,829 9.1 -22.6°
